sat.trackr.live / text

‹ back to catalog

PAUSAT-1

NORAD 62653 · 2025-009AW

PAYLOAD ACTIVE UNKNOWN

§ Identity

Operator
Country
TURK
Launch date
2025-01-14
Launch site
AFWTR
Launch vehicle
Mass (kg)
RCS (m²)

External: N2YO · Heavens-Above · Gunter

§ Orbital elements

Epoch: 2026-05-25T04:33:10.218240Z

Period
94.53 min
Inclination
97.3955°
Eccentricity
0.0002911
Mean motion
15.23370610 rev/d
Perigee alt
493.7 km
Apogee alt
497.7 km
Semi-major
6,873.8 km
B*
1.5620e-4
RAAN
225.1681°
Arg perigee
70.5371°
Mean anomaly
289.6181°
Rev number
7,528

§ Raw data

PAUSAT-11 62653U 25009AW  26145.18970160  .00003643  00000+0  15620-3 0  99902 62653  97.3955 225.1681 0002911  70.5371 289.6181 15.23370610 75288

JSON: /api/v1/satellites/62653 · /tle

For live sub-satellite position, see the globe view (requires WebGL).

§ Visibility from observer

Set your observer location to see the next 7 days of passes ≥ 10°. The values pass through the URL so the page stays shareable.

No JS? Fill the form by hand. The geolocation button needs JavaScript.

§ Radio — SatNOGS DB

ModeDescriptionDownlinkUplink
FM Mode S - Transmitter 2.263 GHz
FM Mode X - Transmitter 8.343 GHz

2 transmitters · refreshed weekly from db.satnogs.org